Home   Weather   Theni   Past weeks

Flag for India Past Weather in Theni, Tamil Nadu, India — Yesterday and Last 2 Weeks

81 °F

Scattered clouds.

Feels Like: 84 °F
Forecast: 68 / 90 °F
Wind: 3 mph from Northeast

Location: Coimbatore / Peelamedu

Current Time: Oct 25, 2016 at 10:25:43 AM

Latest Report: Oct 25, 2016 at 9:30 AM

Visibility: 2 mi

Pressure: 29.95 "Hg

Humidity: 70%

Dew Point: 70 °F

Location of TheniLocation

Past Weather in Theni — Graph


Theni Temperature Yesterday

Maximum temperature yesterday: 91 °F (at 1:00 PM)
Minimum temperature yesterday: 75 °F (at 1:30 AM)
Average temperature yesterday: 81 °F

High & Low Weather Summary for the Past Weeks

High93 °F (Oct 11, 1:00 PM)100% (Oct 14, 7:30 AM)29.98 "Hg (Oct 14, 7:30 AM)
Low73 °F (Oct 10, 11:30 PM)30% (Oct 18, 1:30 PM)29.74 "Hg (Oct 18, 4:30 PM)
Average81 °F72%29.87 "Hg
* Reported Oct 10 8:30 AM — Oct 25 9:00 AM, Theni, Weather by CustomWeather, © 2016

Note: Actual official high and low records may vary slightly from our data, if they occured in-between our weather recording intervals... More about our weather records


Theni Weather History for the Previous 24 Hours

Scroll right to see more
Time TempWeatherWind HumidityBarometerVisibility
9:00 AM
Tue, Oct 25
79 °FFog.No wind74%29.95 "Hg2 mi
8:30 AM77 °FFog.No wind83%29.92 "Hg1 mi
8:00 AM77 °FFog.3 mph83%29.92 "Hg1 mi
7:30 AM75 °FFog.3 mph89%29.92 "Hg1 mi
7:00 AM75 °FFog.3 mph83%29.92 "Hg1 mi
6:30 AM75 °FFog.No wind83%29.89 "Hg1 mi
6:00 AM73 °FFog.No wind89%29.89 "Hg2 mi
5:30 AM73 °FFog.No wind89%29.86 "Hg2 mi
4:30 AM73 °FFog.3 mph94%29.86 "Hg2 mi
3:30 AM75 °FFog.6 mph89%29.83 "Hg2 mi
2:30 AM75 °FFog.7 mph89%29.83 "Hg3 mi
1:30 AM75 °FFog.7 mph89%29.86 "Hg3 mi
12:30 AM75 °FFog.7 mph89%29.89 "Hg3 mi
11:30 PM
Mon, Oct 24
75 °FFog.9 mph89%29.89 "Hg3 mi
11:00 PM77 °FPassing clouds.8 mph83%29.89 "Hg3 mi
10:30 PM77 °FPassing clouds.7 mph83%29.92 "Hg3 mi
10:00 PM77 °FPassing clouds.9 mph83%29.92 "Hg3 mi
9:30 PM79 °FPassing clouds.5 mph79%29.92 "Hg3 mi
9:00 PM79 °FPassing clouds.7 mph79%29.92 "Hg3 mi
8:30 PM79 °FPassing clouds.5 mph79%29.89 "Hg3 mi
8:00 PM81 °FPassing clouds.5 mph74%29.89 "Hg3 mi
7:30 PM81 °FPassing clouds.5 mph74%29.89 "Hg3 mi
7:00 PM82 °FPassing clouds.3 mph70%29.86 "Hg3 mi
6:30 PM82 °FPassing clouds.3 mph66%29.86 "Hg3 mi
6:00 PM84 °FScattered clouds.3 mph62%29.83 "Hg3 mi
5:30 PM86 °FScattered clouds.6 mph59%29.83 "Hg3 mi
5:00 PM86 °FBroken clouds.10 mph55%29.83 "Hg3 mi
4:30 PM86 °FScattered clouds.9 mph55%29.83 "Hg3 mi
4:00 PM88 °FScattered clouds.8 mph52%29.83 "Hg3 mi
3:30 PM88 °FScattered clouds.6 mph49%29.83 "Hg3 mi
3:00 PM90 °FHaze.8 mph46%29.83 "Hg3 mi
2:30 PM91 °FHaze.7 mph44%29.83 "Hg3 mi
2:00 PM91 °FHaze.7 mph44%29.83 "Hg3 mi
1:30 PM90 °FScattered clouds.6 mph46%29.86 "Hg3 mi
1:00 PM91 °FScattered clouds.7 mph46%29.89 "Hg3 mi
12:30 PM90 °FScattered clouds.3 mph46%29.89 "Hg3 mi
12:00 PM88 °FScattered clouds.5 mph52%29.92 "Hg3 mi
11:30 AM88 °FScattered clouds.5 mph52%29.95 "Hg3 mi
11:00 AM86 °FScattered clouds.3 mph55%29.95 "Hg3 mi
10:30 AM84 °FScattered clouds.3 mph58%29.95 "Hg3 mi
10:00 AM81 °FHaze.No wind66%29.98 "Hg2 mi
Weather by CustomWeather, © 2016

See weather overviewHow to use our weather pages